Weather History for KBAC - May, 2013

Change the Weather History Date:

Wednesday, May 15, 2013

  Actual Average (KJMS) Record (KJMS)
Temperature  
Mean Temperature 68 °F 55 °F  
Max Temperature 80 °F 68 °F 97 °F (1987)
Min Temperature 55 °F 42 °F 25 °F (1946)
Degree Days  
Heating Degree Days 0 11  
Month to date heating degree days 195  
Since 1 July heating degree days 8789  
Cooling Degree Days 2 1  
Month to date cooling degree days 4  
Year to date cooling degree days 6  
Growing Degree Days 18 (Base 50)    
Moisture  
Dew Point 37 °F    
Average Humidity 31    
Maximum Humidity 72    
Minimum Humidity 15    
Precipitation  
Precipitation 0.00 in 0.09 in 0.73 in (1991)
Month to date precipitation 1.18  
Year to date precipitation 4.07  
Sea Level Pressure  
Sea Level Pressure 29.85 in    
Wind  
Wind Speed 12 mph (WNW)    
Max Wind Speed 24 mph    
Max Gust Speed 33 mph    
Visibility 10 miles    
Events      
T = Trace of Precipitation, MM = Missing Value Source: NWS Daily Summary

Daily Weather History Graph

Daily Weather History Graph

Search for Another Location

Airport or City:

Trip Planner

Search our weather history database for the weather conditions in past years. The results will help you decide how hot, cold, wet, or windy it might be!

Date:

Astronomy

May. 15, 2013 Rise Set
Actual Time 5:56 AM CDT 9:01 PM CDT
Civil Twilight 5:20 AM CDT 9:37 PM CDT
Nautical Twilight 4:34 AM CDT 10:24 PM CDT
Astronomical Twilight 3:37 AM CDT 11:21 PM CDT
Moon 10:37 AM CDT (5/15) 12:45 AM CDT (5/15)
Length of Visible Light 16h 16m
Length of Day
15h 04m
Waxing Crescent, 27% of the Moon is Illuminated
May 15
Waxing Crescent
May 17
First Quarter
May 24
Full
May 31
Last Quarter
Jun 8
New

Hourly Weather History & Observations

Time (CDT) Temp. Dew Point Humidity Pressure Visibility Wind Dir Wind Speed Gust Speed Precip Events Conditions
7:55 AM 55.4 °F 46.4 °F 72% 29.88 in 10.0 mi West 6.9 mph - N/A   Clear
8:15 AM 57.2 °F 44.6 °F 63% 29.88 in 10.0 mi West 11.5 mph - N/A   Clear
8:35 AM 59.0 °F 44.6 °F 59% 29.88 in 10.0 mi WNW 8.1 mph - N/A   Clear
8:55 AM 62.6 °F 44.6 °F 52% 29.88 in 10.0 mi NW 9.2 mph - N/A   Clear
9:15 AM 64.4 °F 44.6 °F 49% 29.88 in 10.0 mi West 8.1 mph - N/A   Clear
9:35 AM 64.4 °F 42.8 °F 45% 29.88 in 10.0 mi WNW 10.4 mph - N/A   Clear
9:55 AM 66.2 °F 42.8 °F 43% 29.88 in 10.0 mi West 9.2 mph - N/A   Clear
10:15 AM 68.0 °F 42.8 °F 40% 29.87 in 10.0 mi West 9.2 mph - N/A   Clear
10:35 AM 69.8 °F 42.8 °F 38% 29.87 in 10.0 mi WNW 11.5 mph - N/A   Clear
10:55 AM 71.6 °F 41.0 °F 33% 29.87 in 10.0 mi WNW 11.5 mph - N/A   Clear
11:15 AM 73.4 °F 39.2 °F 29% 29.86 in 10.0 mi West 15.0 mph 18.4 mph N/A   Clear
11:35 AM 75.2 °F 33.8 °F 22% 29.86 in 10.0 mi WNW 10.4 mph 21.9 mph N/A   Clear
11:55 AM 75.2 °F 35.6 °F 24% 29.86 in 10.0 mi WNW 12.7 mph 24.2 mph N/A   Clear
12:15 PM 77.0 °F 35.6 °F 22% 29.86 in 10.0 mi West 16.1 mph 27.6 mph N/A   Clear
12:55 PM 77.0 °F 37.4 °F 24% 29.84 in 10.0 mi WSW 20.7 mph 26.5 mph N/A   Partly Cloudy
1:15 PM 77.0 °F 37.4 °F 24% 29.83 in 10.0 mi West 17.3 mph 26.5 mph N/A   Partly Cloudy
1:35 PM 77.0 °F 37.4 °F 24% 29.83 in 10.0 mi West 18.4 mph 28.8 mph N/A   Partly Cloudy
1:55 PM 78.8 °F 33.8 °F 20% 29.83 in 10.0 mi West 16.1 mph 24.2 mph N/A   Clear
2:15 PM 78.8 °F 32.0 °F 18% 29.83 in 10.0 mi West 16.1 mph 28.8 mph N/A   Clear
2:35 PM 78.8 °F 32.0 °F 18% 29.82 in 10.0 mi West 20.7 mph - N/A   Clear
2:55 PM 80.6 °F 30.2 °F 16% 29.82 in 10.0 mi WNW 21.9 mph 31.1 mph N/A   Partly Cloudy
3:15 PM 80.6 °F 28.4 °F 15% 29.82 in 10.0 mi West 20.7 mph 33.4 mph N/A   Clear
3:35 PM 80.6 °F 32.0 °F 17% 29.81 in 10.0 mi WNW 20.7 mph 24.2 mph N/A   Clear
3:55 PM 78.8 °F 32.0 °F 18% 29.82 in 10.0 mi NW 12.7 mph 29.9 mph N/A   Partly Cloudy
4:15 PM 78.8 °F 28.4 °F 16% 29.81 in 10.0 mi WNW 21.9 mph 33.4 mph N/A   Clear
4:35 PM 78.8 °F 30.2 °F 17% 29.81 in 10.0 mi NW 24.2 mph 31.1 mph N/A   Clear